Location: Artiguedieu
(43.5000°N, 0.5454°E)
Time: 17:26:10
(UTC+00:00)

Transit 2A Rocket - Pass Details

Date: 31 July 2021
Orbit: 586 x 916 km, 66.7° (Epoch: 21 September)

Event Time Altitude Azimuth Distance (km) Brightness Sun altitude
Rises 14:30:30 0° 219° (SW) 2,831 8.5 50.1°
Reaches altitude 10° 14:32:42 10° 222° (SW) 1,957 8.0 49.8°
Maximum altitude 14:37:03 63° 304° (NW) 713 6.0 49.1°
Drops below altitude 10° 14:41:47 10° 26° (NNE) 2,125 7.1 48.3°
Sets 14:44:15 0° 30° (NNE) 3,100 7.8 47.9°
